sat.trackr.live / text

‹ back to catalog

O3B FM14

NORAD 43233 · 2018-024C

PAYLOAD ACTIVE UNKNOWN

§ Identity

Operator
Country
O3B
Launch date
2018-03-09
Launch site
FRGUI
Launch vehicle
Mass (kg)
RCS (m²)

Purposes: comms

External: N2YO · Heavens-Above · Gunter

§ Orbital elements

Epoch: 2026-05-24T23:58:03.015264Z

Period
287.93 min
Inclination
0.0486°
Eccentricity
0.0002880
Mean motion
5.00115729 rev/d
Perigee alt
8,061.7 km
Apogee alt
8,070.0 km
Semi-major
14,444.0 km
B*
0.0000e+0
RAAN
8.5251°
Arg perigee
55.6275°
Mean anomaly
295.8764°
Rev number
14,979

§ Raw data

O3B FM141 43233U 18024C   26144.99864601 -.00000024  00000+0  00000+0 0  99952 43233   0.0486   8.5251 0002880  55.6275 295.8764  5.00115729149795

JSON: /api/v1/satellites/43233 · /tle

For live sub-satellite position, see the globe view (requires WebGL).

§ Visibility from observer

Set your observer location to see the next 7 days of passes ≥ 10°. The values pass through the URL so the page stays shareable.

No JS? Fill the form by hand. The geolocation button needs JavaScript.